CAPE
2350 2396 2352 2367 2328 2252 2210 2289 2486 2595 2565 2561 2608 2406 2318 2817 2789 2729 2766 2661 2877 2862 2768 2926 2721 2825 3150 3034 3064 3280 3342 3403 3417 3377 3552 3533 3310 3090 2948 2466 2321 2439 2070 1923 1728 1469 1304 1046 847 795 779 847 838 808 848 899 786 394 297 570 363 543 268 239 280 331 469 792 645 339 527 232 366 174 167 178 828 748 309 222 422 519 408 276 201
2367 2505 2519 2460 2404 2367 2337 2355 2526 2679 2671 2608 2620 2515 2223 2393 2835 2738 2905 2849 2635 2913 2846 2816 2913 2624 2936 3197 3111 3262 3444 3479 3540 3501 3481 3579 3516 3335 3134 2897 2384 2579 2475 2179 1912 1695 1519 1337 1037 912 966 876 801 739 745 865 972 679 321 348 392 425 324 202 159 249 297 361 599 419 481 278 256 320 368 222 474 636 402 271 607 322 324 293 175
2387 2529 2628 2593 2502 2472 2451 2459 2548 2725 2765 2724 2660 2610 2364 2149 2415 2658 2692 2863 2742 2492 2616 2868 2964 2809 2606 2918 3199 3266 3427 3525 3578 3621 3552 3542 3534 3422 3304 3114 2839 2577 2637 2467 2208 1885 1662 1464 1254 1026 1058 1102 954 837 760 837 898 802 621 368 290 317 475 223 212 289 316 470 708 641 221 604 276 356 364 587 462 512 316 356 446 715 542 385 323
2473 2505 2642 2678 2620 2562 2553 2538 2596 2730 2835 2837 2770 2662 2476 2178 2104 2429 2495 2616 2743 2573 2222 2242 3005 3042 2796 2643 2836 3172 3345 3450 3514 3595 3618 3552 3511 3427 3285 3160 3065 2852 2694 2578 2342 2043 1735 1538 1406 1347 1065 1101 1126 1021 877 756 789 819 720 645 448 295 347 571 282 204 240 286 562 790 622 468 615 613 310 476 670 597 312 293 424 547 628 588 490
2639 2568 2619 2689 2673 2614 2611 2605 2606 2687 2808 2862 2833 2718 2526 2232 2024 2213 2388 2401 2568 2603 2410 2018 2124 2996 3046 2832 2690 2669 2978 3290 3350 3418 3513 3527 3483 3422 3323 3114 3011 3025 2873 2710 2576 2140 1856 1692 1573 1451 1345 1176 1055 1137 1088 928 778 798 787 734 686 545 475 629 554 384 404 418 349 673 789 593 371 447 396 206 506 702 582 541 545 570 513 503 508
2871 2696 2663 2688 2685 2644 2618 2613 2599 2623 2708 2776 2796 2695 2521 2306 2062 2034 2257 2371 2351 2448 2497 2323 1951 2039 2909 3073 2977 2795 2684 2956 3190 3243 3297 3390 3421 3401 3372 3246 3004 2935 2968 2850 2693 2434 2131 1888 1707 1565 1468 1348 1156 1052 1122 1091 960 851 872 826 782 736 605 699 682 612 529 537 548 533 763 992 642 465 496 340 373 432 619 717 673 662 654 661 592
3224 2886 2747 2701 2719 2701 2643 2595 2561 2575 2601 2634 2636 2575 2368 2233 2219 2131 2103 2257 2306 2353 2375 2467 2336 1971 1986 2763 3177 3153 2960 2864 3024 3124 3144 3228 3348 3382 3395 3366 3214 2943 2898 2906 2829 2692 2445 2195 1955 1759 1666 1526 1372 1163 1083 1122 1066 950 884 950 904 869 832 687 870 736 667 599 665 706 681 876 954 802 636 540 478 480 328 442 526 553 641 584 547
3599 3282 2922 2751 2710 2754 2691 2620 2569 2528 2525 2505 2435 2364 2250 2002 1959 2235 2194 2112 2140 2207 2428 2385 2490 2393 2075 2061 2668 3170 3237 3050 2941 3042 3056 3041 3194 3341 3396 3421 3355 3164 2972 2932 2928 2860 2687 2462 2237 2027 1852 1751 1595 1436 1213 1116 1095 1033 915 934 997 954 911 837 898 949 822 749 696 710 792 826 1023 939 804 686 582 477 409 328 385 460 540 533 435
3833 3616 3290 2903 2729 2742 2748 2675 2613 2616 2596 2477 2346 2245 2115 1906 1700 1846 2190 2148 2032 1989 2134 2479 2428 2529 2648 2443 2352 2688 3131 3220 3030 2896 2973 2941 2931 3128 3279 3309 3302 3235 3069 2941 2950 2945 2861 2701 2504 2292 2104 1968 1838 1679 1449 1205 1100 1049 981 885 966 1006 946 863 760 1043 998 882 824 786 776 744 781 958 937 900 580 536 468 517 494 447 474 526 548
3981 3815 3593 3268 2881 2798 2783 2750 2743 2763 2790 2659 2464 2348 2314 2073 1716 1669 2042 2132 2045 1927 1816 2126 2535 2507 2625 2866 2811 2716 2810 3110 3211 3043 2901 2929 2898 2962 3141 3201 3216 3181 3095 2945 2891 2948 2925 2835 2701 2542 2366 2201 2072 1940 1762 1520 1265 1093 997 885 860 961 959 896 806 791 989 1032 944 851 796 777 727 694 820 866 823 677 585 528 536 586 642 655 623
3978 3895 3798 3587 3238 2989 2892 2827 2772 2784 2876 2896 2682 2411 2299 2235 1963 1706 1880 2287 2298 2205 2027 1850 2230 2638 2577 2696 3024 3053 2956 2928 3094 3263 3135 2955 2921 2934 3022 3189 3212 3224 3164 3040 2907 2914 2976 2932 2815 2702 2591 2446 2300 2149 1998 1841 1647 1429 1171 940 828 846 905 874 850 794 775 906 1024 994 923 855 800 707 629 735 797 809 709 611 531 486 674 777 781
3879 3850 3872 3855 3626 3291 3086 2941 2818 2756 2795 2922 2859 2595 2336 2192 2048 1855 1766 2156 2580 2611 2547 2256 2065 2550 2757 2684 2843 3112 3203 3105 3030 3130 3228 3137 2967 2926 2987 3081 3250 3285 3294 3242 3109 2972 2970 3020 2979 2845 2716 2622 2494 2348 2200 2061 1928 1786 1612 1381 1131 910 865 847 837 847 816 776 820 942 980 946 880 802 694 614 699 759 764 677 646 568 513 553 548
3744 3770 3760 3958 3896 3661 3343 3108 2941 2785 2745 2791 2855 2750 2479 2329 2219 2076 1966 2002 2518 2856 2877 2799 2504 2378 2885 2952 2860 2976 3169 3274 3269 3166 3148 3174 3124 2934 2888 2961 3072 3276 3330 3327 3286 3207 3089 3050 3090 3058 2950 2826 2738 2586 2394 2296 2176 2046 1892 1743 1558 1330 1121 939 809 838 852 826 778 792 847 876 856 826 754 644 586 688 777 754 704 670 605 565 568
3636 3678 3687 3912 3972 3827 3613 3315 3179 2978 2822 2773 2817 2819 2644 2449 2374 2317 2234 2162 2317 2804 3052 3061 2991 2709 2662 3078 3116 3042 3150 3274 3399 3377 3270 3214 3195 3115 2872 2885 2911 2971 3190 3320 3290 3224 3190 3118 3055 3069 3080 3015 2900 2779 2696 2610 2451 2324 2202 2102 1982 1817 1647 1464 1269 1072 927 878 844 792 792 776 783 746 723 676 608 621 700 774 734 735 725 683 646
3435 3634 3646 3861 3992 3903 3738 3501 3369 3254 3066 2906 2854 2890 2828 2633 2476 2446 2430 2398 2361 2432 2834 3182 3241 3167 2886 2762 3196 3284 3275 3357 3476 3526 3480 3374 3246 3191 3005 2868 2866 2854 2848 3007 3209 3199 3088 3007 2960 2917 2937 3016 2985 2903 2810 2762 2724 2670 2596 2510 2378 2261 2108 1914 1745 1560 1374 1184 945 800 760 763 768 705 661 661 634 600 610 714 746 731 741 777 784
3671 3620 3566 3780 3988 3956 3828 3644 3531 3472 3345 3144 2969 2910 2930 2854 2658 2520 2492 2508 2494 2448 2454 2722 3200 3347 3260 3020 2808 3180 3504 3479 3537 3637 3652 3578 3471 3334 3146 2972 2883 2838 2803 2773 2878 3096 3123 2992 2870 2837 2826 2820 2888 2936 2918 2821 2767 2733 2697 2632 2571 2499 2448 2311 2088 1811 1518 1324 1086 896 768 696 758 720 634 612 599 586 591 654 726 764 805 858 856
3759 3725 3556 3753 3993 4010 3942 3834 3747 3715 3666 3493 3225 3019 2984 3006 2894 2658 2501 2461 2549 2592 2577 2537 2678 3110 3376 3340 3094 2802 2986 3570 3754 3701 3726 3733 3689 3563 3403 3225 3049 2914 2890 2908 2921 2941 3042 3089 2994 2824 2734 2726 2727 2788 2885 2926 2847 2738 2641 2585 2544 2452 2397 2351 2351 2246 1960 1685 1438 1208 991 853 738 728 678 608 608 572 596 620 688 763 790 818 802
3750 4108 3747 3806 4062 4109 4052 3986 3936 3952 3972 3870 3607 3301 3079 3095 3126 2957 2664 2482 2443 2572 2696 2720 2690 2769 3064 3353 3396 3300 3049 2938 3534 4025 3961 3859 3792 3716 3625 3549 3451 3361 3247 3169 3052 3145 3221 3250 3247 3124 2946 2766 2678 2691 2694 2723 2748 2712 2620 2543 2475 2393 2331 2261 2248 2256 2219 2072 1862 1630 1408 1193 1062 930 828 686 612 608 655 645 665 715 742 716 701
3602 4523 4134 4038 4231 4298 4262 4208 4160 4186 4237 4168 4004 3715 3376 3220 3310 3412 3192 2821 2541 2496 2671 2808 2898 2916 2961 3096 3337 3448 3448 3395 3249 3358 3980 4162 4146 4032 3898 3782 3722 3670 3655 3607 3501 3348 3241 3357 3519 3549 3448 3310 3158 2976 2839 2698 2655 2591 2560 2519 2460 2384 2291 2118 2126 2145 2138 2129 2057 1869 1641 1450 1279 1157 1060 936 780 590 544 612 604 701 682 652 622
3348 4568 4585 4396 4505 4553 4561 4538 4538 4564 4564 4530 4393 4120 3790 3566 3616 3814 3772 3482 3122 2877 2920 3042 3082 3139 3161 3202 3231 3332 3464 3596 3669 3644 3500 3645 4091 4309 4269 4172 4073 3989 3923 3836 3792 3722 3629 3555 3447 3352 3715 3804 3755 3600 3458 3265 3066 2890 2739 2604 2464 2354 2293 2192 2132 2059 2027 2038 2025 1920 1760 1489 1176 1081 1106 1060 989 834 647 569 556 667 612 574 539
3460 4700 4817 4631 4736 4874 4923 4930 4923 4940 4946 4946 4911 4688 4312 4020 3968 4127 4194 4022 3730 3429 3280 3462 3644 3662 3628 3602 3590 3564 3577 3702 3841 3900 3935 3903 3817 3802 4040 4174 4205 4203 4174 4134 4085 4047 3997 3911 3805 3674 3535 3535 3567 3882 3913 3854 3726 3588 3452 3228 3026 2826 2664 2508 2438 2363 2236 2124 2002 1894 1821 1719 1436 1295 1184 1077 1032 930 778 597 493 587 551 490 470
3670 4646 4914 4728 4794 5076 5254 5346 5310 5249 5222 5246 5291 5130 4856 4549 4388 4423 4429 4399 4206 3978 3691 3546 3656 3996 4194 4129 4033 4006 3965 3902 3973 3983 4026 4059 4064 4029 3934 3845 3828 3915 3995 4040 4069 4079 4083 4020 3970 3876 3778 3686 3583 3462 3525 3754 3882 3880 3800 3705 3560 3406 3215 3075 2922 2730 2615 2503 2351 2240 2153 2006 1765 1605 1456 1296 1126 994 778 666 502 409 511 436 395
3882 4699 4944 4792 4725 4975 5302 5558 5577 5526 5407 5390 5428 5385 5247 4968 4748 4654 4642 4615 4522 4316 4140 3880 3697 3706 3940 4341 4443 4421 4348 4237 4048 4034 3965 4008 4007 3912 3998 4002 3923 4003 3955 3916 3905 3914 3960 3961 3951 3914 3829 3776 3706 3665 3581 3508 3491 3554 3704 3765 3737 3678 3580 3279 3024 2919 2754 2648 2526 2424 2311 2150 1983 1823 1618 1443 1291 1098 950 678 567 417 362 393 333
4032 4729 4914 4823 4725 4847 5214 5564 5644 5576 5526 5469 5457 5417 5393 5227 4991 4824 4774 4713 4636 4548 4390 4245 3998 3802 3745 3933 4156 4280 4564 4773 4656 4580 4566 4537 4461 4415 4336 4294 4220 4167 4090 4053 4036 4037 4043 4024 3986 4012 3989 3969 3931 3884 3806 3700 3578 3514 3436 3445 3527 3610 3609 3535 3379 3158 2842 2644 2524 2446 2348 2295 2167 2014 1871 1711 1529 1348 1145 949 562 428 307 317 294
4206 4576 4868 4905 4846 4950 5182 5484 5570 5526 5516 5556 5476 5390 5312 5240 5101 4924 4943 4840 4788 4736 4704 4652 4476 4229 4128 4038 4103 4091 3860 3890 3930 4028 4265 4405 4428 4422 4445 4447 4416 4296 4250 4189 4156 4165 4140 4105 4085 4095 4101 4075 4023 3974 3913 3858 3794 3741 3687 3624 3513 3294 3214 3254 3232 3047 2857 2589 2568 2530 2622 2616 2551 2362 2088 1813 1699 1560 1423 1168 885 521 314 266 230
4315 4478 4886 5060 5011 5078 5149 5336 5470 5411 5441 5562 5538 5427 5288 5222 5146 5130 5082 4998 4973 4964 4976 4922 4852 4687 4507 4315 4251 4026 3859 3775 3725 3652 3628 3553 3738 3806 3859 3847 3868 3837 3805 3808 3786 3793 3830 3847 3880 3888 3914 3946 3939 3930 3945 3923 3843 3733 3708 3664 3588 3532 3460 3379 2967 2828 2739 2498 2594 2598 2494 2444 2321 2366 2154 1944 1633 1567 1545 1181 1139 716 397 270 222
4648 4626 4904 5167 5185 5190 5207 5323 5394 5306 5384 5530 5576 5535 5383 5310 5253 5307 5258 5180 5138 5146 5173 5062 4982 4876 4743 4602 4339 4214 4085 3852 3664 3573 3459 3492 3500 3498 3476 3501 3525 3511 3451 3422 3364 3349 3428 3446 3429 3418 3388 3377 3384 3386 3535 3561 3545 3534 3532 3548 3506 3460 3412 3369 3356 3294 3179 2960 2771 2534 2446 2385 2326 2102 1993 1975 1917 1638 1262 1193 881 502 248 294 265
5169 5012 5002 5107 5137 5185 5202 6053 5550 5328 5425 5605 5661 5545 5362 5304 5260 5360 5352 5271 5210 5130 5072 4963 4878 4822 4699 4506 4376 4241 4016 3762 3622 3544 3520 3524 3545 3512 3485 3461 3447 3398 3391 3344 3292 3250 3221 3232 3206 3171 3090 2986 2862 2644 2235 2214 2633 2858 2996 3070 3134 3150 3157 3175 3172 3181 3143 2840 2639 2672 2383 2083 2237 2011 1709 1755 1502 1599 1518 1383 1064 505 217 215 220
5272 5082 4931 4863 4746 4773 4898 5080 5170 5170 5156 5197 5257 5275 5264 5198 4942 4960 4958 5088 5100 5017 4839 4638 4509 4355 4211 4070 4027 3997 3851 3722 3674 3620 3614 3562 3478 3432 3420 3414 3372 3360 3240 3164 3115 3084 2989 2838 2482 1754 563 31 0 0 0 0 4 199 630 948 1055 1166 1389 1616 1786 2191 2714 2860 2930 2887 2275 2125 2143 1912 1573 1345 1333 1161 1088 1213 964 819 413 6 87
4959 4916 4790 4747 4666 4781 4530 4538 4892 4886 4879 4838 4922 4936 4933 4977 4813 4700 4713 4710 4755 4666 4594 4467 4320 4221 4114 3852 3633 3635 3677 3649 3583 3510 3446 3381 3335 3272 3269 3245 3172 3087 3012 2923 2787 2291 914 0 0 0 0 0 0 0 0 0 0 0 0 75 328 675 769 762 769 818 921 1139 1476 1898 1904 1852 1620 1817 1705 1462 1250 1120 1087 1086 1059 779 488 251 112
4720 4765 5020 4957 4760 4893 4390 4368 4571 4547 4618 4611 4689 4760 4708 4599 4606 4508 4427 4480 4420 4282 4278 4069 3894 3790 3793 3782 3571 3492 3503 3493 3437 3431 3414 3380 3324 3197 3105 3008 2839 2662 2022 512 0 0 0 0 0 0 0 0 0 0 0 0 0 0 0 0 0 1 114 376 510 572 574 625 777 979 1248 1541 1722 1716 1429 1165 888 868 729 744 1025 887 744 403 168
4414 4486 4548 4452 4272 4436 4410 4346 4499 4505 4495 4431 4443 4469 4435 4216 4080 4138 4048 3990 4042 4016 4084 3967 3810 3745 3723 3605 3526 3500 3456 3458 3442 3374 3214 3101 2966 2706 2343 1149 0 0 0 0 0 0 0 0 0 0 0 0 0 0 0 0 0 0 0 0 0 0 0 20 190 388 428 463 532 649 795 1055 1222 1113 753 470 809 885 820 516 686 586 498 456 200
4281 4327 4331 4194 4032 3917 4147 4270 4420 4410 4352 4234 4147 4004 3960 3864 3794 3806 3742 3858 3767 3672 3649 3693 3686 3658 3652 3605 3525 3419 3371 3144 3038 2844 2508 1364 119 0 0 0 0 0 0 0 0 0 0 0 0 0 0 0 0 0 0 0 0 0 0 0 0 0 0 0 0 27 170 331 413 482 558 648 702 438 294 491 262 212 630 588 624 560 505 411 163
4097 4096 4099 4015 3874 3871 3807 3982 4140 4140 4006 3943 3893 3850 3760 3677 3574 3556 3536 3497 3542 3587 3460 3346 3284 3328 3368 3216 3048 2847 2700 2133 931 0 0 0 0 0 0 0 0 0 0 0 0 0 0 0 0 0 1 1 1 0 0 0 0 0 0 0 0 0 0 0 2 6 12 63 196 268 351 429 468 340 388 306 287 203 195 294 320 472 217 61 18
3970 3988 3962 3936 3824 3758 3727 3641 3689 3683 3660 3644 3531 3535 3502 3460 3433 3438 3462 3412 3424 3347 3298 3200 3062 3049 2989 2757 1967 744 0 0 0 0 0 0 0 0 0 0 0 0 0 0 0 1 2 3 3 4 4 4 3 2 0 0 0 0 0 0 0 0 0 0 0 0 7 20 59 131 183 274 295 207 138 117 135 104 194 248 269 72 217 80 0
3853 3857 3825 3782 3657 3504 3494 3497 3472 3559 3570 3485 3393 3374 3336 3281 3184 3098 3090 2987 2948 2921 2822 2613 2390 1592 471 0 0 0 0 0 0 0 0 0 0 0 0 0 0 0 0 0 0 1 4 6 6 5 4 4 3 0 1 1 1 1 2 1 0 0 0 0 0 0 0 2 7 12 21 50 35 4 36 51 82 124 108 136 98 122 252 140 3
3520 3634 3620 3485 3383 3397 3311 3281 3322 3364 3425 3352 3248 3179 3130 3118 3035 2337 1990 1866 1779 1608 1324 324 3 0 0 0 0 0 0 0 0 0 0 0 0 0 0 0 0 0 0 0 1 2 3 6 5 2 1 2 0 0 0 0 0 0 0 0 0 0 0 0 0 0 0 0 2 8 14 20 27 27 23 20 3 22 6 5 27 182 86 5 0
2997 3060 3249 3264 3236 3202 3204 3209 3243 3181 3239 3287 3219 3201 3102 2742 876 132 58 91 64 2 0 0 0 0 0 0 3 0 0 0 0 0 0 0 0 0 0 0 0 0 0 0 2 2 3 5 3 1 2 0 0 0 0 0 0 0 0 0 0 0 0 0 0 0 0 0 2 15 20 2 1 4 1 36 59 14 46 14 30 69 1 2 66
2283 2504 2691 2835 2991 3086 3008 2896 2782 2875 2956 2915 2527 2143 1410 305 49 31 30 94 50 0 0 0 0 0 0 0 0 0 0 0 0 0 0 0 0 0 0 0 0 0 0 1 2 3 5 6 3 2 1 0 0 0 0 0 0 0 0 0 0 0 0 0 0 0 0 0 0 2 6 5 14 0 0 0 3 0 15 110 199 17 48 114 59
786 1530 1998 2303 2484 2472 2528 2448 2277 1867 845 48 36 29 31 22 13 35 93 63 5 0 0 0 0 0 0 0 0 0 0 0 0 0 0 2 4 3 1 0 0 0 1 1 2 3 5 6 2 2 1 0 0 0 0 0 0 0 0 0 0 0 0 0 0 0 0 0 7 0 0 16 8 0 0 0 2 7 16 43 64 70 60 65 30
609 538 285 1 0 2 74 24 20 12 0 2 2 1 0 0 0 0 0 0 1 63 4 0 0 0 0 0 0 0 0 0 0 1 1 0 1 5 3 1 0 2 0 0 0 1 2 2 2 2 1 0 0 0 0 0 0 0 0 0 0 0 0 0 0 0 0 0 0 0 0 0 0 7 3 0 0 5 7 12 18 20 4 0 0
76 6 1 0 0 0 2 4 5 16 12 4 0 0 0 0 0 0 0 0 8 14 2 0 0 0 0 0 0 0 0 0 0 0 0 0 1 3 3 0 0 0 0 0 0 0 0 0 0 0 0 0 0 0 0 0 0 0 0 0 0 0 0 0 0 0 0 0 0 0 0 0 0 0 0 0 4 8 0 0 0 0 0 0 0
0 0 0 0 0 0 0 0 0 0 0 0 0 0 0 0 0 0 0 0 0 50 91 83 61 9 2 6 0 0 0 0 0 0 0 0 0 0 0 0 0 0 0 0 0 0 0 0 0 0 0 0 0 0 0 0 0 0 0 0 0 8 10 0 0 0 0 0 0 0 0 0 0 0 0 0 0 0 0 3 5 7 10 14 18
0 0 0 0 0 0 0 0 0 0 0 0 0 0 0 0 0 0 0 0 0 0 0 0 0 1 0 0 0 0 0 0 0 0 0 0 0 0 0 0 0 0 0 0 0 0 0 0 0 0 0 0 0 0 0 0 0 0 0 0 0 0 6 10 0 0 4 7 17 4 0 11 7 2 1 0 0 0 0 7 14 26 29 30 31
0 0 0 0 0 0 0 0 0 0 0 0 0 0 0 0 0 0 0 0 0 0 0 0 0 0 0 0 0 0 1 0 0 0 5 12 13 8 1 4 0 0 0 0 0 0 0 0 0 0 0 0 0 0 0 0 0 0 0 0 0 0 0 0 0 0 0 0 0 0 0 0 13 17 14 12 14 17 19 23 25 17 1 2 8
0 0 0 0 0 0 0 0 0 0 0 0 0 0 0 0 0 0 0 0 0 0 0 0 0 0 0 0 0 2 5 5 3 1 0 2 2 2 0 0 0 0 0 0 0 0 0 0 0 0 0 0 0 0 0 0 0 0 0 0 0 0 0 0 0 0 0 0 0 0 0 0 0 0 0 0 0 0 7 0 0 0 0 2 4
0 0 0 0 0 0 0 0 0 0 0 0 0 0 0 0 0 0 0 0 0 0 0 0 1 2 2 2 2 5 7 4 2 2 1 0 0 1 3 2 0 0 0 0 0 0 0 0 0 0 0 0 0 0 0 0 0 0 0 0 0 0 0 0 0 0 0 0 7 0 0 0 0 0 0 0 0 0 0 0 0 0 1 0 0
0 0 0 0 0 0 0 0 0 0 0 0 0 0 0 0 0 0 0 0 0 0 0 1 1 0 2 2 2 1 1 1 2 3 2 0 0 0 3 3 1 0 0 0 0 0 0 0 0 0 0 0 0 0 0 0 0 0 0 0 0 0 0 0 0 0 6 9 8 5 12 8 0 0 0 0 0 0 0 0 0 0 0 0 0
0 0 0 0 0 0 0 0 0 0 0 0 0 0 1 1 0 0 0 0 0 0 0 0 3 4 4 2 1 1 1 1 2 1 0 0 0 1 3 2 6 5 1 0 0 0 0 0 0 0 0 0 0 0 0 0 0 0 0 0 0 0 0 0 0 0 0 0 0 0 0 26 16 0 0 0 0 0 0 0 0 0 0 0 0
0 0 0 0 0 0 0 0 0 0 0 0 0 0 0 0 0 0 1 1 2 0 1 3 6 6 6 5 5 4 3 2 0 0 0 0 0 1 1 1 4 6 4 1 0 0 0 0 0 0 0 0 0 0 0 0 0 0 0 0 0 0 0 0 0 0 0 0 0 0 0 0 0 0 0 0 2 4 0 1 1 0 0 0 0
0 0 0 0 0 0 0 0 0 0 0 0 0 0 0 0 0 0 0 1 0 0 2 2 4 3 3 4 6 8 8 9 8 6 4 3 1 1 1 3 4 4 3 1 0 0 0 0 0 0 0 0 0 0 0 0 0 0 0 0 0 0 0 0 0 0 0 0 0 0 0 0 0 0 0 0 0 0 0 0 0 0 0 0 0
Wind_Speed
4 3 3 4 4 4 4 3 2 2 3 3 3 4 4 5 6 7 8 8 10 11 12 13 14 15 17 18 18 17 17 17 17 17 18 18 18 19 19 20 19 16 15 14 13 14 13 12 11 11 12 13 12 12 12 13 14 16 17 17 18 16 18 17 17 14 8 10 12 14 17 19 18 21 22 21 20 21 23 24 24 25 26 27 27
4 4 4 5 6 5 5 3 2 3 4 5 5 6 6 7 9 10 10 10 12 13 14 14 15 15 15 17 19 20 19 19 18 18 18 19 18 19 20 21 20 18 16 15 15 13 14 14 12 12 12 14 14 14 14 13 15 16 17 18 18 17 17 17 16 16 15 10 11 12 17 19 21 20 23 24 22 23 24 24 24 26 27 28 28
4 2 2 3 5 4 3 3 3 3 5 5 6 7 8 8 10 11 12 13 13 13 14 15 16 17 16 16 17 19 20 19 19 18 18 19 19 19 20 21 21 19 17 15 15 14 14 14 14 14 13 14 14 15 15 15 16 17 17 18 19 19 18 18 17 17 17 15 16 16 18 20 22 21 21 23 25 27 27 26 27 26 27 29 30
3 3 3 3 4 3 3 3 4 4 5 5 6 7 8 9 10 11 13 13 14 14 15 16 17 18 18 17 16 17 18 19 20 19 19 19 19 19 19 20 21 20 18 16 15 14 14 14 14 15 15 15 15 16 16 17 17 18 19 19 20 21 21 20 20 19 17 17 16 19 18 22 19 19 22 23 26 26 28 28 28 29 30 30 31
4 4 5 6 6 6 6 6 6 6 6 5 6 7 8 9 10 12 13 14 15 16 17 17 18 18 19 20 19 18 18 19 20 20 19 18 19 19 18 19 20 20 18 15 14 14 13 14 14 16 16 17 16 17 18 19 19 20 20 21 22 22 22 23 23 22 21 20 17 17 19 20 22 22 25 26 24 26 27 30 31 32 32 33 33
6 6 6 7 7 8 7 7 8 7 7 6 7 9 10 11 13 13 14 16 16 17 18 18 19 19 19 20 20 20 18 18 19 20 20 18 18 18 18 18 19 20 19 15 13 13 13 14 15 16 17 19 19 19 20 21 21 21 22 22 23 23 23 23 25 25 25 23 22 19 19 22 21 23 26 28 29 28 27 29 30 32 34 34 35
7 7 8 8 7 7 7 7 7 7 7 7 8 9 10 12 14 15 16 16 16 17 17 18 17 19 20 20 19 20 20 18 17 18 18 18 18 18 18 18 19 19 18 16 14 12 11 13 15 17 18 19 21 22 23 23 23 23 24 24 23 24 24 24 25 25 25 24 23 24 23 22 25 25 24 28 30 31 31 30 30 32 35 38 36
7 7 8 8 8 7 6 6 6 7 8 9 9 10 11 12 13 15 16 16 15 15 16 17 17 18 19 19 18 18 18 18 17 16 17 17 17 18 19 20 20 19 15 14 14 13 12 13 15 17 19 20 21 22 25 25 25 25 25 25 25 25 25 25 25 25 25 24 25 26 26 26 25 26 28 30 30 28 32 35 35 36 36 37 40
7 7 7 8 7 7 6 6 7 8 9 11 11 12 12 13 14 15 16 15 13 13 13 16 18 18 18 17 17 17 17 17 16 16 16 16 17 18 19 20 20 18 14 12 13 13 14 14 15 16 18 21 25 25 26 27 26 26 26 27 27 26 25 25 25 25 24 24 24 26 27 28 30 33 32 34 36 36 36 37 37 38 39 39 38
11 10 9 7 7 7 8 8 9 10 11 12 13 14 14 15 15 15 15 15 14 13 12 14 17 18 17 16 16 16 16 15 17 21 19 16 16 16 16 17 18 17 15 13 12 14 15 16 16 21 22 24 25 27 27 28 29 27 27 28 28 27 27 27 26 26 27 26 25 28 28 28 32 36 37 37 37 38 40 42 41 41 42 40 39
15 14 12 10 9 9 9 10 11 12 12 14 15 16 16 16 15 15 15 16 15 14 13 14 15 16 16 16 16 15 15 14 19 20 21 22 18 15 15 15 15 16 15 14 14 14 15 16 16 19 22 23 24 27 28 29 29 29 28 29 30 30 29 29 27 29 29 27 27 29 29 29 32 37 38 40 41 43 43 45 45 46 46 45 43
14 14 13 13 12 11 11 12 12 13 14 14 16 17 16 16 15 15 16 16 15 15 15 15 14 14 15 15 15 14 13 15 19 19 20 21 19 16 13 12 12 14 14 14 13 12 13 13 15 15 17 20 21 22 26 29 29 29 30 31 32 33 34 34 32 31 32 31 30 31 32 31 34 37 39 42 42 43 43 46 47 49 48 47 45
10 13 14 15 16 14 13 13 13 14 14 14 16 17 17 16 15 15 16 15 15 15 16 16 14 12 13 15 14 14 12 16 18 19 19 19 20 17 12 12 12 12 13 14 14 13 12 12 12 14 14 21 21 21 22 23 26 30 31 33 34 36 35 35 36 36 36 35 33 32 33 34 35 35 40 43 44 44 45 45 47 48 49 48 46
8 11 13 16 17 17 17 16 15 15 15 15 16 17 16 15 13 13 14 14 14 13 14 15 13 12 12 13 14 13 12 15 19 20 20 20 20 18 12 12 11 11 12 13 13 14 15 15 15 16 17 19 21 23 24 25 24 24 24 26 27 30 34 36 37 38 38 37 37 34 33 36 35 36 40 44 45 44 46 46 48 49 50 50 50
9 11 14 16 17 19 20 19 18 17 16 16 15 15 15 13 12 12 13 13 13 13 14 14 13 12 12 11 10 11 11 17 19 21 21 21 21 19 13 12 11 11 12 13 14 15 17 18 19 20 21 22 24 27 27 28 29 28 29 28 29 31 33 33 33 35 38 38 39 38 37 40 38 39 43 45 46 46 48 49 51 51 52 52 52
12 13 15 17 18 20 21 21 20 20 19 17 15 13 12 12 11 11 11 10 10 10 10 11 11 11 11 12 11 11 11 18 21 22 22 21 22 16 14 13 13 13 15 16 17 17 19 21 21 22 24 25 27 33 33 31 31 31 32 32 32 33 33 33 36 38 39 40 40 40 41 43 44 44 46 48 48 48 49 50 51 53 56 56 54
14 15 17 19 19 21 22 22 22 21 20 19 15 12 12 11 11 11 9 9 10 11 11 11 10 10 11 12 13 11 11 15 20 21 21 23 21 17 18 17 17 17 18 20 20 20 20 22 24 23 24 24 27 33 33 35 33 33 34 35 36 35 32 31 33 36 37 40 41 41 42 43 45 46 49 52 51 53 54 53 51 54 56 55 54
16 17 18 20 21 22 23 23 22 21 21 18 15 12 11 11 11 12 9 8 9 11 10 9 9 10 12 13 13 11 10 12 19 20 20 21 22 20 20 21 20 21 20 21 23 22 22 24 24 24 24 23 26 31 33 37 35 35 37 37 38 37 33 34 36 36 36 38 40 42 44 45 48 50 51 53 55 57 55 52 52 55 54 55 55
19 19 19 21 22 23 24 24 23 22 20 18 15 13 12 11 11 11 8 7 7 8 8 7 8 9 11 11 13 13 10 12 20 20 21 23 23 20 21 21 19 19 21 22 24 24 24 25 26 26 25 24 27 32 36 40 37 37 39 41 40 38 37 41 42 40 42 43 42 43 44 46 50 53 52 56 57 57 54 52 54 55 55 54 56
21 22 22 22 22 23 23 24 24 23 21 18 16 14 13 12 11 10 8 8 8 8 8 8 9 9 10 11 11 12 12 13 20 25 27 27 27 24 23 22 20 21 22 23 24 25 25 25 27 28 28 27 29 34 37 43 41 40 42 43 42 40 39 46 44 44 44 47 46 48 48 50 52 54 54 55 55 56 55 54 55 56 55 56 57
24 24 25 24 23 23 23 24 25 24 22 19 17 16 14 11 10 9 9 10 9 8 7 8 9 10 12 13 13 13 15 16 21 29 28 30 30 30 25 24 24 26 26 25 25 25 25 27 28 29 32 33 33 34 37 42 44 43 44 44 44 40 45 49 47 49 47 48 48 48 49 51 54 55 55 55 56 55 55 55 56 56 56 57 58
26 27 27 26 24 24 24 24 25 25 24 21 18 16 15 13 11 10 11 11 10 9 9 10 11 12 14 16 15 16 18 20 24 28 30 29 32 34 28 26 28 30 29 28 26 26 26 28 29 30 33 36 38 38 38 41 43 44 41 41 40 42 46 49 50 52 52 50 51 52 52 53 55 56 56 57 56 57 57 57 57 57 56 57 60
28 29 29 28 26 25 25 26 26 26 25 22 19 18 17 15 14 13 13 12 12 11 12 13 13 15 17 17 19 20 21 23 23 26 28 31 32 33 31 29 32 34 33 30 29 28 30 31 31 33 37 40 41 41 40 40 43 44 41 40 41 43 46 48 50 53 54 53 53 53 54 55 57 57 58 58 58 59 60 60 59 59 58 57 60
29 30 30 29 28 27 28 27 26 27 27 25 21 21 20 18 17 16 15 14 13 13 14 17 16 17 17 20 21 23 24 26 27 28 26 24 25 25 23 21 25 31 31 29 29 30 31 33 36 36 36 35 33 34 35 39 43 45 46 44 44 46 49 50 51 54 56 57 56 55 56 57 57 57 57 58 60 62 62 63 63 62 61 61 62
28 30 31 31 30 30 30 28 27 28 28 26 22 21 21 21 19 18 17 16 16 16 18 20 20 20 22 22 23 25 33 37 34 33 35 37 36 34 32 30 26 28 30 30 31 33 32 29 28 30 33 33 35 39 41 39 38 38 40 43 46 51 53 53 54 55 59 61 59 57 56 57 59 58 57 59 61 62 62 62 64 64 64 65 65
27 28 31 32 32 32 31 30 29 30 31 27 23 22 21 21 21 21 20 19 20 21 21 21 22 24 24 26 28 34 40 37 36 34 35 37 37 37 36 35 34 36 38 35 32 31 31 33 33 35 37 40 44 46 48 47 46 46 46 45 49 50 52 54 55 59 59 60 59 57 56 57 59 60 60 61 62 61 62 64 67 66 67 66 67
26 28 30 32 33 34 34 32 32 32 32 30 27 25 25 25 25 24 23 23 24 24 24 24 25 27 27 29 34 40 39 38 37 37 36 38 39 39 40 40 41 44 45 45 44 44 44 46 47 46 47 44 44 45 45 42 44 47 50 52 53 54 54 55 55 56 57 57 57 58 57 58 62 66 65 64 62 59 61 66 70 69 68 66 67
28 29 30 32 33 35 36 36 35 35 35 32 29 27 29 29 28 27 26 27 27 27 29 28 28 29 32 37 41 41 40 39 39 39 40 41 41 41 42 43 44 46 46 48 49 48 49 49 49 52 52 50 49 50 50 51 51 51 50 51 52 51 50 48 48 50 51 53 55 56 58 62 68 71 70 69 65 66 71 71 69 66 66 69 69
30 30 31 32 31 33 35 36 38 41 41 42 40 38 34 34 36 36 33 28 27 31 33 35 36 38 40 41 43 43 41 42 39 38 42 42 44 44 43 45 46 47 51 54 51 52 54 54 56 54 54 nan nan nan nan nan nan 48 46 46 47 48 50 52 51 51 51 53 55 57 60 67 70 74 76 75 72 73 75 73 69 65 64 nan nan
30 30 30 31 31 33 35 38 38 40 41 40 42 45 48 49 41 38 37 41 48 46 43 39 40 43 46 42 40 44 45 43 43 44 44 44 44 44 45 45 47 49 51 53 58 58 58 nan nan nan nan nan nan nan nan nan nan nan nan nan 44 46 48 49 51 51 53 56 58 59 60 66 69 74 80 81 80 78 74 71 68 68 67 66 66
33 33 33 32 33 35 38 38 39 41 41 41 43 45 45 47 51 51 47 47 51 53 54 53 52 50 51 48 46 53 53 51 50 47 47 47 47 49 49 50 51 52 56 60 nan nan nan nan nan nan nan nan nan nan nan nan nan nan nan nan nan nan 48 50 51 53 55 56 57 57 59 64 69 76 80 83 84 82 76 70 70 69 67 66 67
36 35 35 35 39 39 39 40 41 43 43 43 45 45 46 46 45 48 49 50 55 57 57 56 55 54 54 53 50 48 50 51 52 52 52 53 53 55 56 57 nan nan nan nan nan nan nan nan nan nan nan nan nan nan nan nan nan nan nan nan nan nan nan nan 50 53 54 55 55 56 59 62 67 71 74 78 83 83 78 71 67 66 65 65 65
40 38 38 40 40 40 40 39 41 43 44 45 45 46 47 47 48 46 47 51 53 55 57 56 56 56 57 56 56 55 54 53 55 56 57 59 60 nan nan nan nan nan nan nan nan nan nan nan nan nan nan nan nan nan nan nan nan nan nan nan nan nan nan nan nan nan 51 52 55 56 57 59 64 70 75 75 78 80 76 72 70 68 67 66 66
43 41 40 41 42 40 40 40 41 42 44 46 46 47 48 49 49 49 49 48 50 49 49 53 57 58 57 58 58 58 58 58 59 nan nan nan nan nan nan nan nan nan nan nan nan nan nan nan nan nan nan nan nan nan nan nan nan nan nan nan nan nan nan nan nan nan nan nan 55 55 57 60 66 70 73 75 78 77 72 67 64 64 62 nan nan
46 48 50 45 43 43 42 42 43 42 43 45 46 48 49 49 50 50 49 50 51 51 51 49 49 56 56 54 57 61 nan nan nan nan nan nan nan nan nan nan nan nan nan nan nan nan nan nan nan nan nan nan nan nan nan nan nan nan nan nan nan nan nan nan nan nan nan nan nan 58 62 61 59 60 64 67 63 61 65 62 55 nan 57 nan nan
49 48 47 47 46 46 46 45 45 44 45 46 47 49 49 50 51 51 52 52 52 52 51 51 50 52 59 nan nan nan nan nan nan nan nan nan nan nan nan nan nan nan nan nan nan nan nan nan nan nan nan nan nan nan nan nan nan nan nan nan nan nan nan nan nan nan nan nan nan nan nan nan nan nan nan nan nan 55 54 61 nan 59 56 55 nan
48 48 48 47 47 47 47 48 47 48 49 49 50 50 51 52 52 52 52 52 52 52 52 50 nan nan nan nan nan nan nan nan nan nan nan nan nan nan nan nan nan nan nan nan nan nan nan nan nan nan nan nan nan nan nan nan nan nan nan nan nan nan nan nan nan nan nan nan nan nan nan nan nan nan nan nan nan nan nan nan nan 73 nan nan nan
49 48 48 48 48 48 49 49 50 52 51 50 50 50 51 51 52 52 nan nan nan nan nan nan nan nan nan nan nan nan nan nan nan nan nan nan nan nan nan nan nan nan nan nan nan nan nan nan nan nan nan nan nan nan nan nan nan nan nan nan nan nan nan nan nan nan nan nan nan nan nan nan nan nan nan nan nan nan nan nan nan nan nan nan nan
49 50 52 51 49 48 48 49 50 50 50 50 50 52 53 52 nan nan nan nan nan nan nan nan nan nan nan nan nan nan nan nan nan nan nan nan nan nan nan nan nan nan nan nan nan nan nan nan nan nan nan nan nan nan nan nan nan nan nan nan nan nan nan nan nan nan nan nan nan nan nan nan nan nan nan nan nan nan nan 72 67 nan nan 72 nan
48 48 51 54 51 52 51 51 51 52 52 nan nan nan nan nan nan nan nan nan nan nan nan nan nan nan nan nan nan nan nan nan nan nan nan nan nan nan nan nan nan nan nan nan nan nan nan nan nan nan nan nan nan nan nan nan nan nan nan nan nan nan nan nan nan nan nan nan nan nan nan nan nan nan nan nan nan nan nan nan nan nan nan nan nan
49 51 51 nan nan nan nan nan nan nan nan nan nan nan nan nan nan nan nan nan nan nan nan nan nan nan nan nan nan nan nan nan nan nan nan nan nan nan nan nan nan nan nan nan nan nan nan nan nan nan nan nan nan nan nan nan nan nan nan nan nan nan nan nan nan nan nan nan nan nan nan nan nan nan nan nan nan nan nan nan nan nan nan nan nan
nan nan nan nan nan nan nan nan nan nan nan nan nan nan nan nan nan nan nan nan nan nan nan nan nan nan nan nan nan nan nan nan nan nan nan nan nan nan nan nan nan nan nan nan nan nan nan nan nan nan nan nan nan nan nan nan nan nan nan nan nan nan nan nan nan nan nan nan nan nan nan nan nan nan nan nan nan nan nan nan nan nan nan nan nan
nan nan nan nan nan nan nan nan nan nan nan nan nan nan nan nan nan nan nan nan nan nan nan nan nan nan nan nan nan nan nan nan nan nan nan nan nan nan nan nan nan nan nan nan nan nan nan nan nan nan nan nan nan nan nan nan nan nan nan nan nan nan nan nan nan nan nan nan nan nan nan nan nan nan nan nan nan nan nan nan nan nan nan nan nan
nan nan nan nan nan nan nan nan nan nan nan nan nan nan nan nan nan nan nan nan nan nan nan nan nan nan nan nan nan nan nan nan nan nan nan nan nan nan nan nan nan nan nan nan nan nan nan nan nan nan nan nan nan nan nan nan nan nan nan nan nan nan nan nan nan nan nan nan nan nan nan nan nan nan nan nan nan nan nan nan nan nan nan nan nan
nan nan nan nan nan nan nan nan nan nan nan nan nan nan nan nan nan nan nan nan nan nan nan nan nan nan nan nan nan nan nan nan nan nan nan nan nan nan nan nan nan nan nan nan nan nan nan nan nan nan nan nan nan nan nan nan nan nan nan nan nan nan nan nan nan nan nan nan nan nan nan nan nan nan nan nan nan nan nan nan nan nan nan nan nan
nan nan nan nan nan nan nan nan nan nan nan nan nan nan nan nan nan nan nan nan nan nan nan nan nan nan nan nan nan nan nan nan nan nan nan nan nan nan nan nan nan nan nan nan nan nan nan nan nan nan nan nan nan nan nan nan nan nan nan nan nan nan nan nan nan nan nan nan nan nan nan nan nan nan nan nan nan nan nan nan nan nan nan nan nan
nan nan nan nan nan nan nan nan nan nan nan nan nan nan nan nan nan nan nan nan nan nan nan nan nan nan nan nan nan nan nan nan nan nan nan nan nan nan nan nan nan nan nan nan nan nan nan nan nan nan nan nan nan nan nan nan nan nan nan nan nan nan nan nan nan nan nan nan nan nan nan nan nan nan nan nan nan nan nan nan nan nan nan nan nan
nan nan nan nan nan nan nan nan nan nan nan nan nan nan nan nan nan nan nan nan nan nan nan nan nan nan nan nan nan nan nan nan nan nan nan nan nan nan nan nan nan nan nan nan nan nan nan nan nan nan nan nan nan nan nan nan nan nan nan nan nan nan nan nan nan nan nan nan nan nan nan nan nan nan nan nan nan nan nan nan nan nan nan nan nan
nan nan nan nan nan nan nan nan nan nan nan nan nan nan nan nan nan nan nan nan nan nan nan nan nan nan nan nan nan nan nan nan nan nan nan nan nan nan nan nan nan nan nan nan nan nan nan nan nan nan nan nan nan nan nan nan nan nan nan nan nan nan nan nan nan nan nan nan nan nan nan nan nan nan nan nan nan nan nan nan nan nan nan nan nan
nan nan nan nan nan nan nan nan nan nan nan nan nan nan nan nan nan nan nan nan nan nan nan nan nan nan nan nan nan nan nan nan nan nan nan nan nan nan nan nan nan nan nan nan nan nan nan nan nan nan nan nan nan nan nan nan nan nan nan nan nan nan nan nan nan nan nan nan nan nan nan nan nan nan nan nan nan nan nan nan nan nan nan nan nan
nan nan nan nan nan nan nan nan nan nan nan nan nan nan nan nan nan nan nan nan nan nan nan nan nan nan nan nan nan nan nan nan nan nan nan nan nan nan nan nan nan nan nan nan nan nan nan nan nan nan nan nan nan nan nan nan nan nan nan nan nan nan nan nan nan nan nan nan nan nan nan nan nan nan nan nan nan nan nan nan nan nan nan nan nan
Wind_Direction
350 12 17 39 36 35 31 21 358 268 283 306 305 309 292 290 301 298 290 301 292 302 307 309 310 309 310 313 318 318 317 317 315 314 315 319 324 330 332 338 334 324 328 335 334 331 339 344 346 346 340 346 351 353 348 346 343 345 345 343 350 351 347 350 358 9 11 343 337 337 342 336 346 349 351 355 353 355 354 353 351 351 354 354 356
13 16 21 29 24 24 24 12 353 298 315 318 314 306 304 293 295 293 303 308 301 300 308 309 310 315 310 311 315 317 317 316 314 311 311 313 318 318 326 333 338 329 321 329 336 331 331 338 343 339 335 343 341 345 346 343 340 343 346 345 349 353 352 347 356 353 6 352 345 343 342 346 351 355 354 356 356 351 354 352 349 349 352 352 352
11 0 6 10 22 14 2 358 334 332 335 318 326 311 305 299 292 303 304 303 308 312 308 311 316 319 321 314 313 314 315 315 313 312 312 313 315 316 319 327 334 336 325 324 331 330 326 331 337 333 325 332 336 338 335 338 335 340 346 343 346 348 350 351 346 357 358 2 349 351 353 351 354 358 355 353 352 347 348 349 349 348 348 348 349
339 344 336 345 353 331 329 330 335 338 342 324 331 318 303 301 299 306 309 305 311 314 318 316 314 321 324 323 318 313 314 315 315 316 317 315 314 316 316 319 327 334 331 320 319 325 332 325 328 329 328 330 329 329 331 332 334 337 340 343 344 347 346 347 350 348 351 355 353 349 347 343 353 348 349 344 344 344 345 345 345 347 347 347 348
320 333 334 342 339 336 336 328 336 344 342 319 329 321 313 308 305 310 308 312 312 310 315 320 318 318 323 325 325 323 319 319 320 319 317 316 317 315 316 315 319 327 330 322 312 319 326 329 324 322 325 327 323 324 325 332 335 333 338 340 343 345 344 346 348 345 345 351 351 344 343 342 340 337 340 340 340 340 341 343 343 345 347 347 346
319 325 328 337 335 344 341 333 338 339 337 329 329 323 318 314 315 313 312 315 313 314 317 317 321 323 323 326 327 328 324 320 321 321 320 318 315 314 313 314 316 322 326 321 314 313 319 326 323 322 325 327 326 326 325 332 331 334 335 338 341 342 346 346 343 345 345 347 342 344 340 341 337 334 334 337 337 338 338 339 337 340 342 343 343
320 326 330 335 329 339 339 339 327 328 328 324 313 314 321 318 318 321 318 319 317 316 319 319 317 324 328 327 327 327 327 326 321 319 317 317 316 314 314 313 318 323 325 319 311 309 314 318 324 327 331 332 330 328 328 328 329 335 335 335 336 339 344 343 340 341 341 341 339 336 337 336 332 334 330 330 330 330 334 335 337 335 335 338 339
327 329 328 334 334 334 331 323 321 321 317 316 316 318 319 318 317 316 318 324 323 319 318 322 321 321 327 330 331 327 327 327 324 320 318 319 317 318 319 319 325 330 329 319 310 310 314 319 326 333 336 336 334 331 328 329 328 331 331 328 331 336 339 336 333 334 333 334 334 331 330 330 324 320 317 318 324 324 328 330 335 333 334 334 334
339 335 329 338 337 319 303 298 299 306 313 315 317 318 316 314 315 315 318 323 319 323 318 318 322 324 325 329 332 330 329 329 326 326 327 328 324 324 328 330 332 338 341 333 320 318 318 322 330 335 341 344 345 339 336 331 326 329 329 327 328 329 330 326 327 325 325 325 326 321 322 326 324 318 320 321 327 331 323 322 328 328 328 330 331
350 347 346 340 322 307 302 294 296 303 310 313 314 312 309 312 318 321 321 322 320 320 321 317 322 325 327 329 330 329 332 329 339 348 344 337 335 330 333 339 343 347 352 350 340 333 333 330 334 348 348 349 346 346 343 340 339 333 327 324 324 320 320 319 319 318 316 318 321 318 322 327 323 321 322 323 321 316 317 323 327 323 320 327 327
353 351 348 333 320 310 301 299 297 303 306 304 303 307 310 309 314 318 318 318 320 317 321 329 324 322 328 332 336 336 337 339 353 350 353 356 347 344 348 352 354 356 357 355 353 348 342 339 335 339 344 344 345 347 345 343 342 342 337 329 324 320 316 317 316 314 313 315 313 313 319 323 320 318 321 320 316 320 323 321 322 317 320 322 327
356 351 341 327 320 317 307 301 300 302 297 300 301 304 305 306 312 316 316 316 313 312 324 332 331 325 327 336 344 345 346 354 356 356 358 0 358 356 357 358 359 359 358 358 357 352 348 344 340 334 334 343 345 348 352 352 349 346 342 336 334 336 330 323 321 317 316 315 314 317 317 317 314 314 315 313 315 316 318 317 318 318 319 322 323
353 348 339 331 326 319 309 304 304 298 298 298 293 292 300 307 313 314 318 316 309 317 328 330 335 334 330 339 350 355 356 359 356 359 1 2 5 4 359 0 1 2 2 2 1 356 353 351 348 342 340 351 351 349 345 348 352 353 349 347 345 341 337 337 336 331 323 324 323 323 321 314 312 314 312 312 310 314 312 313 313 314 316 320 321
331 335 331 331 326 320 315 311 309 305 298 294 289 293 302 313 316 312 308 307 314 319 322 332 337 342 339 341 353 359 2 360 357 359 0 0 2 1 3 359 0 2 360 358 354 351 348 345 342 340 336 336 336 340 336 335 334 336 336 334 334 336 335 339 342 339 329 325 324 326 323 313 315 313 310 306 308 312 310 312 311 312 314 320 319
307 314 318 322 323 321 319 316 313 307 303 298 294 298 306 310 313 308 305 311 316 320 326 334 342 348 351 346 347 359 1 2 357 359 358 356 358 351 353 348 346 344 344 341 341 339 336 334 336 337 332 332 328 331 331 329 327 325 326 327 328 325 323 326 328 323 322 320 320 322 316 312 314 310 306 307 311 311 310 312 312 313 312 307 306
300 302 306 313 321 322 323 320 314 308 304 302 302 306 305 309 313 307 301 301 304 312 322 330 337 344 350 356 357 359 0 1 356 355 354 350 347 334 334 338 339 337 333 330 327 326 326 327 328 329 330 331 333 333 331 324 320 322 323 323 322 322 324 330 333 328 325 323 320 318 312 309 309 308 307 307 308 307 305 305 305 305 305 309 314
299 298 300 307 314 318 321 322 318 312 305 305 310 309 306 304 299 290 295 299 307 320 329 334 335 341 351 357 5 3 354 351 351 350 347 343 328 322 322 322 328 335 334 324 320 319 318 319 321 321 324 326 329 327 328 322 315 319 320 320 317 317 326 326 328 330 331 329 327 326 321 315 312 313 312 314 310 307 304 307 312 309 309 312 313
292 292 296 302 306 309 313 318 320 315 305 306 308 304 299 288 289 287 300 310 322 327 324 326 334 345 354 358 356 355 353 332 335 340 336 328 320 313 309 314 323 328 326 318 313 315 321 332 326 320 322 322 322 320 319 315 314 317 317 317 315 320 329 325 310 311 325 323 322 321 320 316 316 315 317 316 316 310 309 315 313 308 312 313 313
286 288 288 290 295 301 306 312 319 320 313 303 292 289 289 289 285 282 291 300 311 300 303 320 336 344 351 351 349 348 331 311 314 321 321 315 312 302 302 304 314 317 312 312 312 314 317 318 327 324 320 319 319 315 317 312 313 315 314 311 316 325 333 318 311 311 309 308 310 310 309 313 311 311 313 319 317 316 314 313 307 310 312 312 310
271 270 277 282 285 292 298 307 313 320 317 296 279 275 267 265 275 284 288 296 299 299 300 314 334 337 333 330 327 321 312 301 297 307 308 310 314 303 297 300 309 308 302 303 304 308 312 310 312 317 322 320 316 316 316 316 314 312 309 311 318 330 321 305 311 310 306 306 309 310 311 310 307 306 308 310 313 315 314 311 309 309 310 310 309
266 267 272 276 279 285 289 297 305 311 311 295 272 263 263 265 265 272 281 281 285 289 303 294 303 310 307 307 307 301 295 289 286 297 301 308 314 312 300 309 307 302 301 304 308 309 309 308 305 312 316 317 318 317 314 315 315 311 310 314 319 318 305 306 310 312 307 305 305 306 305 305 305 305 306 307 309 310 310 308 307 307 307 307 305
263 263 268 272 273 276 282 285 292 298 302 292 270 258 256 257 255 260 263 268 282 286 283 281 278 273 276 280 283 282 280 289 276 290 299 306 311 320 308 310 309 304 307 309 312 312 310 306 305 310 318 319 317 316 316 312 313 305 311 317 316 313 308 304 303 303 304 305 304 303 304 305 305 305 307 306 305 307 306 304 303 303 303 303 303
259 260 262 265 268 269 271 278 280 285 294 291 273 257 252 253 250 252 257 260 268 276 276 276 273 267 265 267 270 275 274 277 293 293 307 314 318 321 324 313 315 310 309 313 315 313 310 309 311 319 319 320 319 318 316 317 310 308 316 315 315 315 309 303 303 302 303 305 306 307 308 309 308 308 307 305 303 301 299 298 298 298 297 296 297
252 255 258 260 262 263 266 270 272 278 288 286 272 260 254 251 250 253 256 259 263 266 268 270 271 273 273 268 269 271 274 269 265 262 277 291 286 291 299 298 279 282 290 296 299 299 296 295 286 273 279 287 295 302 308 311 308 314 316 318 319 316 308 307 307 307 306 306 309 311 312 311 309 308 307 304 299 296 294 294 293 293 292 291 292
249 250 252 254 256 257 260 262 263 269 277 280 270 260 257 254 251 248 252 256 260 265 266 270 274 276 276 280 277 273 269 266 270 267 274 286 292 295 297 296 296 292 288 294 291 290 286 284 283 285 287 290 295 299 299 302 307 307 311 316 316 308 309 308 309 305 305 307 309 311 311 310 310 308 304 299 296 292 291 289 288 287 286 286 285
251 250 249 250 252 253 255 255 256 261 269 272 263 255 257 255 252 249 254 255 259 264 267 270 273 274 279 280 281 273 268 273 274 277 277 280 282 286 289 291 294 296 298 295 294 291 294 295 295 295 296 300 302 304 304 305 308 312 314 311 304 304 304 306 306 305 306 306 308 310 311 309 306 304 301 296 293 293 293 290 286 285 283 281 280
250 251 252 250 249 250 251 249 249 253 260 262 255 249 250 253 253 253 256 258 261 264 267 271 273 276 280 282 274 269 274 274 276 277 277 277 278 281 284 285 291 291 293 296 297 295 292 291 292 295 301 306 310 311 311 312 311 310 308 306 304 305 306 306 306 306 307 308 308 308 308 306 300 296 295 294 293 291 290 285 281 282 282 281 281
250 250 253 251 249 249 249 251 251 248 249 254 255 251 251 254 253 252 254 261 265 264 266 270 275 279 278 272 272 274 273 276 277 279 280 281 281 280 280 281 283 285 287 288 287 289 290 290 291 296 299 302 304 302 304 305 306 305 305 305 305 306 306 307 305 303 303 304 304 303 302 300 297 296 294 293 293 290 284 282 284 285 286 284 281
248 249 251 252 252 250 251 249 248 246 246 247 243 237 233 239 247 243 237 240 256 266 263 260 263 265 269 273 276 277 278 279 283 283 284 284 283 282 282 283 284 287 285 284 288 290 291 292 294 297 299 nan nan nan nan nan nan 304 305 305 305 305 304 304 305 305 305 303 302 302 302 299 298 297 297 296 293 289 288 290 290 289 285 nan nan
249 250 251 253 253 253 253 252 253 250 249 249 249 243 238 238 236 247 246 245 250 254 264 266 269 271 269 267 273 282 285 287 289 289 289 288 287 288 288 287 287 287 286 285 290 291 292 nan nan nan nan nan nan nan nan nan nan nan nan nan 302 303 305 305 305 304 302 301 300 300 299 297 296 296 297 298 295 292 294 295 291 287 286 286 286
244 243 245 247 251 252 254 255 252 251 250 251 249 252 250 242 238 239 246 252 258 259 260 262 263 267 275 277 272 275 283 288 292 294 294 293 294 293 291 290 290 290 290 289 nan nan nan nan nan nan nan nan nan nan nan nan nan nan nan nan nan nan 301 301 301 299 298 297 298 298 297 297 296 296 297 296 297 297 295 291 286 286 286 287 286
247 246 248 248 249 252 255 255 253 251 249 251 253 255 255 255 247 240 240 248 255 258 261 263 266 269 273 278 280 279 283 290 294 294 293 291 288 287 287 288 nan nan nan nan nan nan nan nan nan nan nan nan nan nan nan nan nan nan nan nan nan nan nan nan 295 295 295 295 295 295 295 295 296 296 298 299 300 299 296 291 288 287 284 284 283
248 247 248 249 250 252 253 254 253 252 252 251 252 254 258 258 258 255 246 245 251 259 264 267 269 271 271 272 275 282 286 290 293 291 288 283 281 nan nan nan nan nan nan nan nan nan nan nan nan nan nan nan nan nan nan nan nan nan nan nan nan nan nan nan nan nan 295 298 299 300 302 303 302 301 299 295 294 294 293 291 287 285 284 283 280
246 246 247 249 250 250 252 252 251 250 249 251 251 251 252 254 258 260 262 262 259 255 257 265 270 271 272 276 279 280 282 282 279 nan nan nan nan nan nan nan nan nan nan nan nan nan nan nan nan nan nan nan nan nan nan nan nan nan nan nan nan nan nan nan nan nan nan nan 306 308 309 307 301 297 295 294 295 293 291 292 288 283 280 nan nan
245 244 245 246 248 250 251 252 253 253 252 252 253 254 255 257 259 261 262 263 264 265 266 265 265 269 272 272 272 274 nan nan nan nan nan nan nan nan nan nan nan nan nan nan nan nan nan nan nan nan nan nan nan nan nan nan nan nan nan nan nan nan nan nan nan nan nan nan nan 312 309 304 299 297 299 297 292 289 287 285 284 nan 277 nan nan
245 245 244 244 247 248 249 250 250 251 253 253 253 253 254 255 256 258 260 262 265 267 267 267 268 268 268 nan nan nan nan nan nan nan nan nan nan nan nan nan nan nan nan nan nan nan nan nan nan nan nan nan nan nan nan nan nan nan nan nan nan nan nan nan nan nan nan nan nan nan nan nan nan nan nan nan nan 298 287 283 nan 273 270 272 nan
244 245 245 245 246 248 249 249 250 252 252 254 254 254 254 256 257 259 261 263 266 267 268 268 nan nan nan nan nan nan nan nan nan nan nan nan nan nan nan nan nan nan nan nan nan nan nan nan nan nan nan nan nan nan nan nan nan nan nan nan nan nan nan nan nan nan nan nan nan nan nan nan nan nan nan nan nan nan nan nan nan 265 nan nan nan
243 244 244 245 246 248 249 251 252 253 253 254 255 256 257 257 259 260 nan nan nan nan nan nan nan nan nan nan nan nan nan nan nan nan nan nan nan nan nan nan nan nan nan nan nan nan nan nan nan nan nan nan nan nan nan nan nan nan nan nan nan nan nan nan nan nan nan nan nan nan nan nan nan nan nan nan nan nan nan nan nan nan nan nan nan
243 245 247 247 246 247 249 250 250 251 253 254 256 258 258 258 nan nan nan nan nan nan nan nan nan nan nan nan nan nan nan nan nan nan nan nan nan nan nan nan nan nan nan nan nan nan nan nan nan nan nan nan nan nan nan nan nan nan nan nan nan nan nan nan nan nan nan nan nan nan nan nan nan nan nan nan nan nan nan 258 248 nan nan 252 nan
246 246 246 248 246 247 248 249 250 250 252 nan nan nan nan nan nan nan nan nan nan nan nan nan nan nan nan nan nan nan nan nan nan nan nan nan nan nan nan nan nan nan nan nan nan nan nan nan nan nan nan nan nan nan nan nan nan nan nan nan nan nan nan nan nan nan nan nan nan nan nan nan nan nan nan nan nan nan nan nan nan nan nan nan nan
246 246 246 nan nan nan nan nan nan nan nan nan nan nan nan nan nan nan nan nan nan nan nan nan nan nan nan nan nan nan nan nan nan nan nan nan nan nan nan nan nan nan nan nan nan nan nan nan nan nan nan nan nan nan nan nan nan nan nan nan nan nan nan nan nan nan nan nan nan nan nan nan nan nan nan nan nan nan nan nan nan nan nan nan nan
nan nan nan nan nan nan nan nan nan nan nan nan nan nan nan nan nan nan nan nan nan nan nan nan nan nan nan nan nan nan nan nan nan nan nan nan nan nan nan nan nan nan nan nan nan nan nan nan nan nan nan nan nan nan nan nan nan nan nan nan nan nan nan nan nan nan nan nan nan nan nan nan nan nan nan nan nan nan nan nan nan nan nan nan nan
nan nan nan nan nan nan nan nan nan nan nan nan nan nan nan nan nan nan nan nan nan nan nan nan nan nan nan nan nan nan nan nan nan nan nan nan nan nan nan nan nan nan nan nan nan nan nan nan nan nan nan nan nan nan nan nan nan nan nan nan nan nan nan nan nan nan nan nan nan nan nan nan nan nan nan nan nan nan nan nan nan nan nan nan nan
nan nan nan nan nan nan nan nan nan nan nan nan nan nan nan nan nan nan nan nan nan nan nan nan nan nan nan nan nan nan nan nan nan nan nan nan nan nan nan nan nan nan nan nan nan nan nan nan nan nan nan nan nan nan nan nan nan nan nan nan nan nan nan nan nan nan nan nan nan nan nan nan nan nan nan nan nan nan nan nan nan nan nan nan nan
nan nan nan nan nan nan nan nan nan nan nan nan nan nan nan nan nan nan nan nan nan nan nan nan nan nan nan nan nan nan nan nan nan nan nan nan nan nan nan nan nan nan nan nan nan nan nan nan nan nan nan nan nan nan nan nan nan nan nan nan nan nan nan nan nan nan nan nan nan nan nan nan nan nan nan nan nan nan nan nan nan nan nan nan nan
nan nan nan nan nan nan nan nan nan nan nan nan nan nan nan nan nan nan nan nan nan nan nan nan nan nan nan nan nan nan nan nan nan nan nan nan nan nan nan nan nan nan nan nan nan nan nan nan nan nan nan nan nan nan nan nan nan nan nan nan nan nan nan nan nan nan nan nan nan nan nan nan nan nan nan nan nan nan nan nan nan nan nan nan nan
nan nan nan nan nan nan nan nan nan nan nan nan nan nan nan nan nan nan nan nan nan nan nan nan nan nan nan nan nan nan nan nan nan nan nan nan nan nan nan nan nan nan nan nan nan nan nan nan nan nan nan nan nan nan nan nan nan nan nan nan nan nan nan nan nan nan nan nan nan nan nan nan nan nan nan nan nan nan nan nan nan nan nan nan nan
nan nan nan nan nan nan nan nan nan nan nan nan nan nan nan nan nan nan nan nan nan nan nan nan nan nan nan nan nan nan nan nan nan nan nan nan nan nan nan nan nan nan nan nan nan nan nan nan nan nan nan nan nan nan nan nan nan nan nan nan nan nan nan nan nan nan nan nan nan nan nan nan nan nan nan nan nan nan nan nan nan nan nan nan nan
nan nan nan nan nan nan nan nan nan nan nan nan nan nan nan nan nan nan nan nan nan nan nan nan nan nan nan nan nan nan nan nan nan nan nan nan nan nan nan nan nan nan nan nan nan nan nan nan nan nan nan nan nan nan nan nan nan nan nan nan nan nan nan nan nan nan nan nan nan nan nan nan nan nan nan nan nan nan nan nan nan nan nan nan nan
nan nan nan nan nan nan nan nan nan nan nan nan nan nan nan nan nan nan nan nan nan nan nan nan nan nan nan nan nan nan nan nan nan nan nan nan nan nan nan nan nan nan nan nan nan nan nan nan nan nan nan nan nan nan nan nan nan nan nan nan nan nan nan nan nan nan nan nan nan nan nan nan nan nan nan nan nan nan nan nan nan nan nan nan nan
nan nan nan nan nan nan nan nan nan nan nan nan nan nan nan nan nan nan nan nan nan nan nan nan nan nan nan nan nan nan nan nan nan nan nan nan nan nan nan nan nan nan nan nan nan nan nan nan nan nan nan nan nan nan nan nan nan nan nan nan nan nan nan nan nan nan nan nan nan nan nan nan nan nan nan nan nan nan nan nan nan nan nan nan nan